{"data":{"norad_id":67350,"intl_designator":"2026-003S","name":"STARLINK-36475","alt_names":[],"object_type":"PAYLOAD","status":"ACTIVE","operator":null,"country":"US","launch_date":"2026-01-09","launch_site_code":"AFETR","launch_vehicle":null,"mission":null,"orbit_class":"UNKNOWN","rcs_meters":null,"size_class":null,"mass_kg":null,"dimensions":null,"purposes":["comms"],"wikipedia_slug":null,"has_3d_model":false,"image_url":null,"decayed_at":null,"tle_current":{"epoch":"2026-09-19T22:25:09.127488Z","epoch_age_seconds":124347,"freshness":"FRESH","line1":"1 67350U 26003S   26262.93413342  .00017152  00000+0  63185-3 0  9990","line2":"2 67350  42.9983 209.8527 0001136 264.4385  95.6337 15.27555046 38536","mean_motion":15.27555046,"eccentricity":0.0001136,"inclination_deg":42.9983,"raan_deg":209.8527,"arg_perigee_deg":264.4385,"mean_anomaly_deg":95.6337,"bstar":0.00063185,"rev_number":3853,"period_min":94.268288646667,"perigee_km":482.34437908104,"apogee_km":483.90325753896,"semimajor_km":6861.26081831,"source":"CELESTRAK","updated_at":"2026-09-20T09:00:43.514675Z"}}}